Weather History for Horseshoe Bay, TX

Change the Weather History Date:

Wednesday, April 9, 2014

  Actual Average (KBMQ) Record (KBMQ)
Temperature  
Mean Temperature 64 °F -  
Max Temperature 85 °F 73 °F 93 °F (2009)
Min Temperature 44 °F 51 °F 36 °F (2003)
Growing Degree Days 14 (Base 50)    
Moisture  
Dew Point 37 °F    
Average Humidity 36    
Maximum Humidity 76    
Minimum Humidity 15    
Precipitation  
Precipitation 0.00 in - - ()
Sea Level Pressure  
Sea Level Pressure 30.15 in    
Wind  
Wind Speed 6 mph (South)    
Max Wind Speed 16 mph    
Max Gust Speed 23 mph    
Visibility 10 miles    
Events      
Averages and records for this station are not official NWS values.
T = Trace of Precipitation, MM = Missing Value Source: NWS Daily Summary

Daily Weather History Graph

Daily Weather History Graph

Search for Another Location

Airport:

Trip Planner

Search our weather history database for the weather conditions in past years. The results will help you decide how hot, cold, wet, or windy it might be!

Date:

Astronomy

Apr. 09, 2014 Rise Set
Actual Time 6:12 AM MDT 6:57 PM MDT
Civil Twilight 5:48 AM MDT 7:21 PM MDT
Nautical Twilight 5:19 AM MDT 7:50 PM MDT
Astronomical Twilight 4:50 AM MDT 8:20 PM MDT
Moon 2:07 PM MDT (4/9) 2:41 AM MDT (4/9)
Length of Visible Light 13h 33m
Length of Day
12h 44m
Waxing Gibbous, 72% of the Moon is Illuminated
Apr 9
Waxing Gibbous
Apr 15
Full
Apr 22
Last Quarter
Apr 29
New
May 6
First Quarter

Hourly Weather History & Observations

Time (MDT) Temp. Dew Point Humidity Pressure Visibility Wind Dir Wind Speed Gust Speed Precip Events Conditions
12:15 AM 55.0 °F 35.2 °F 47% 30.20 in 10.0 mi SSE 3.5 mph - N/A   Clear
12:35 AM 55.6 °F 34.7 °F 45% 30.20 in 10.0 mi SSE 4.6 mph - N/A   Clear
12:55 AM 56.5 °F 34.3 °F 43% 30.19 in 10.0 mi South 5.8 mph - N/A   Clear
1:15 AM 57.2 °F 34.0 °F 42% 30.19 in 10.0 mi SSE 5.8 mph - N/A   Clear
1:35 AM 56.8 °F 33.8 °F 42% 30.19 in 10.0 mi SSE 5.8 mph - N/A   Clear
1:55 AM 55.9 °F 34.0 °F 44% 30.19 in 10.0 mi SSE 4.6 mph - N/A   Clear
2:15 AM 56.3 °F 33.8 °F 43% 30.19 in 10.0 mi SSE 4.6 mph - N/A   Clear
2:35 AM 56.3 °F 33.3 °F 42% 30.19 in 10.0 mi South 4.6 mph - N/A   Clear
2:55 AM 55.0 °F 33.6 °F 44% 30.19 in 10.0 mi Calm Calm - N/A   Clear
3:15 AM 50.4 °F 35.2 °F 56% 30.19 in 10.0 mi Calm Calm - N/A   Clear
3:35 AM 48.0 °F 36.5 °F 64% 30.18 in 10.0 mi Calm Calm - N/A   Clear
3:55 AM 46.4 °F 37.6 °F 71% 30.18 in 10.0 mi Calm Calm - N/A   Clear
4:15 AM 48.2 °F 36.5 °F 64% 30.19 in 10.0 mi Calm Calm - N/A   Clear
4:35 AM 45.1 °F 36.9 °F 73% 30.19 in 10.0 mi Calm Calm - N/A   Clear
4:55 AM 45.0 °F 37.4 °F 75% 30.19 in 10.0 mi Calm Calm - N/A   Clear
5:15 AM 44.8 °F 37.2 °F 75% 30.19 in 10.0 mi Calm Calm - N/A   Clear
5:35 AM 44.2 °F 37.2 °F 76% 30.20 in 10.0 mi Calm Calm - N/A   Clear
5:55 AM 45.5 °F 36.5 °F 71% 30.20 in 10.0 mi Calm Calm - N/A   Clear
6:15 AM 54.1 °F 34.2 °F 47% 30.21 in 10.0 mi South 4.6 mph - N/A   Clear
6:35 AM 56.3 °F 32.5 °F 41% 30.22 in 10.0 mi SSE 6.9 mph - N/A   Clear
6:55 AM 57.2 °F 32.7 °F 40% 30.23 in 10.0 mi South 4.6 mph - N/A   Clear
7:15 AM 59.0 °F 32.5 °F 37% 30.24 in 10.0 mi Calm Calm - N/A   Clear
7:35 AM 60.8 °F 33.3 °F 36% 30.24 in 10.0 mi Calm Calm - N/A   Clear
7:55 AM 61.9 °F 32.9 °F 34% 30.24 in 10.0 mi South 8.1 mph - N/A   Clear
8:15 AM 63.5 °F 33.3 °F 32% 30.24 in 10.0 mi South 8.1 mph - N/A   Clear
8:35 AM 65.7 °F 34.3 °F 31% 30.24 in 10.0 mi South 9.2 mph - N/A   Clear
8:55 AM 67.1 °F 34.2 °F 30% 30.25 in 10.0 mi South 6.9 mph 17.3 mph N/A   Clear
9:15 AM 68.5 °F 34.5 °F 29% 30.25 in 10.0 mi SSW 6.9 mph 16.1 mph N/A   Clear
9:35 AM 70.2 °F 35.6 °F 28% 30.25 in 10.0 mi South 9.2 mph 16.1 mph N/A   Clear
9:55 AM 71.8 °F 36.7 °F 28% 30.25 in 10.0 mi South 12.7 mph 17.3 mph N/A   Clear
10:15 AM 72.5 °F 36.1 °F 27% 30.25 in 10.0 mi South 9.2 mph 16.1 mph N/A   Clear
10:35 AM 73.6 °F 36.7 °F 26% 30.24 in 10.0 mi South 8.1 mph 16.1 mph N/A   Clear
10:55 AM 75.2 °F 38.1 °F 26% 30.24 in 10.0 mi SSW 5.8 mph 21.9 mph N/A   Clear
11:15 AM 76.1 °F 38.3 °F 26% 30.22 in 10.0 mi South 6.9 mph 16.1 mph N/A   Clear
11:35 AM 78.3 °F 40.3 °F 26% 30.21 in 10.0 mi South 6.9 mph - N/A   Clear
11:55 AM 78.8 °F 39.0 °F 24% 30.20 in 10.0 mi South 6.9 mph 16.1 mph N/A   Clear
12:15 PM 79.9 °F 39.2 °F 23% 30.19 in 10.0 mi SSW 4.6 mph 17.3 mph N/A   Clear
12:35 PM 80.6 °F 38.1 °F 22% 30.18 in 10.0 mi SSW 3.5 mph 17.3 mph N/A   Clear
12:55 PM 81.7 °F 36.3 °F 20% 30.17 in 10.0 mi South 8.1 mph 17.3 mph N/A   Clear
1:15 PM 82.9 °F 36.1 °F 19% 30.15 in 10.0 mi SW 10.4 mph 18.4 mph N/A   Clear
1:55 PM 83.5 °F 36.5 °F 19% 30.13 in 10.0 mi South 8.1 mph 18.4 mph N/A   Clear
2:15 PM 83.8 °F 34.9 °F 17% 30.12 in 10.0 mi South 6.9 mph 17.3 mph N/A   Clear
2:35 PM 84.4 °F 35.2 °F 17% 30.10 in 10.0 mi South 6.9 mph - N/A   Clear
2:55 PM 84.7 °F 34.2 °F 16% 30.10 in 10.0 mi SSE 10.4 mph 18.4 mph N/A   Clear
3:15 PM 85.6 °F 34.7 °F 16% 30.09 in 10.0 mi South 10.4 mph - N/A   Clear
3:35 PM 85.1 °F 33.1 °F 15% 30.08 in 10.0 mi South 11.5 mph 17.3 mph N/A   Clear
3:55 PM 84.7 °F 33.4 °F 16% 30.07 in 10.0 mi SSE 11.5 mph 18.4 mph N/A   Clear
4:15 PM 85.3 °F 34.0 °F 16% 30.07 in 10.0 mi South 10.4 mph 16.1 mph N/A   Clear
4:35 PM 84.9 °F 33.4 °F 16% 30.06 in 10.0 mi South 6.9 mph - N/A   Clear
4:55 PM 84.2 °F 32.4 °F 15% 30.05 in 10.0 mi South 8.1 mph 19.6 mph N/A   Clear
5:15 PM 83.8 °F 32.0 °F 15% 30.05 in 10.0 mi South 10.4 mph 17.3 mph N/A   Clear
5:35 PM 83.3 °F 32.0 °F 16% 30.05 in 10.0 mi South 9.2 mph 17.3 mph N/A   Clear
5:55 PM 82.6 °F 32.2 °F 16% 30.04 in 10.0 mi South 11.5 mph - N/A   Clear
6:15 PM 81.3 °F 32.7 °F 17% 30.04 in 10.0 mi South 8.1 mph 17.3 mph N/A   Clear
6:35 PM 79.7 °F 33.3 °F 19% 30.04 in 10.0 mi South 9.2 mph - N/A   Clear
6:55 PM 77.5 °F 34.2 °F 21% 30.05 in 10.0 mi South 6.9 mph - N/A   Clear
7:15 PM 75.4 °F 35.4 °F 23% 30.05 in 10.0 mi SSE 6.9 mph - N/A   Clear
7:35 PM 74.1 °F 36.1 °F 25% 30.05 in 10.0 mi South 6.9 mph - N/A   Clear
7:55 PM 72.9 °F 36.5 °F 27% 30.06 in 10.0 mi SSE 5.8 mph - N/A   Clear
8:15 PM 71.6 °F 36.9 °F 28% 30.07 in 10.0 mi SSE 9.2 mph - N/A   Clear
8:35 PM 71.1 °F 37.4 °F 29% 30.07 in 10.0 mi South 9.2 mph - N/A   Clear
8:55 PM 70.3 °F 37.9 °F 31% 30.07 in 10.0 mi SSE 8.1 mph - N/A   Clear
9:15 PM 70.3 °F 38.8 °F 32% 30.09 in 10.0 mi SSE 10.4 mph 17.3 mph N/A   Clear
9:35 PM 69.4 °F 41.7 °F 37% 30.09 in 10.0 mi SSE 10.4 mph 16.1 mph N/A   Clear
9:55 PM 68.9 °F 45.0 °F 42% 30.09 in 10.0 mi South 11.5 mph 17.3 mph N/A   Clear
10:15 PM 68.0 °F 46.4 °F 46% 30.10 in 10.0 mi SSE 10.4 mph 16.1 mph N/A   Clear
10:35 PM 67.5 °F 48.4 °F 50% 30.10 in 10.0 mi SSE 10.4 mph 16.1 mph N/A   Clear
10:55 PM 67.1 °F 50.2 °F 55% 30.09 in 10.0 mi South 13.8 mph 20.7 mph N/A   Clear
11:15 PM 66.6 °F 51.1 °F 57% 30.08 in 10.0 mi South 11.5 mph 23.0 mph N/A   Clear
11:35 PM 65.8 °F 51.6 °F 60% 30.08 in 10.0 mi South 13.8 mph 20.7 mph N/A   Clear
11:55 PM 65.1 °F 51.8 °F 62% 30.08 in 10.0 mi South 16.1 mph 19.6 mph N/A   Clear